FW6908 Weather Reports


time (UTC)temp
C
wind
direction
speed
KPH
gust
KPH
rain 1hr
cm
rain 24hr
cm
rain mn
cm
humidity
%
barometer
mb
20260502220528 10 17 11.3 16.1 0.00 0.05 0.00 61 1018.9
20260502220030 10 10 4.8 9.7 0.00 0.05 0.00 60 1018.8
20260502215528 10 360 3.2 12.9 0.00 0.05 0.00 60 1018.8
20260502215028 10 350 0.0 25.7 0.00 0.05 0.00 61 1018.8
20260502214527 10 98 4.8 35.4 0.00 0.05 0.00 60 1018.8
20260502214031 10 338 11.3 20.9 0.00 0.05 0.00 60 1018.8
20260502213525 10 360 9.7 17.7 0.00 0.05 0.00 59 1018.8
20260502213037 10 343 12.9 17.7 0.00 0.05 0.00 59 1018.7
20260502212525 10 331 8.0 16.1 0.00 0.05 0.00 59 1018.7
20260502212024 10 343 11.3 19.3 0.00 0.05 0.00 59 1018.7
20260502211529 10 325 11.3 20.9 0.00 0.05 0.00 59 1018.7
20260502211023 10 355 12.9 20.9 0.00 0.05 0.00 59 1018.6
20260502210521 10 345 9.7 17.7 0.00 0.05 0.00 59 1018.6
20260502210020 10 350 9.7 16.1 0.00 0.05 0.05 58 1018.7
20260502205521 10 342 11.3 16.1 0.00 0.05 0.05 57 1018.7
20260502205020 10 11 9.7 16.1 0.00 0.05 0.05 57 1018.7
20260502204521 10 10 9.7 16.1 0.00 0.05 0.05 57 1018.8
20260502204019 10 355 3.2 8.0 0.00 0.05 0.05 56 1018.9
20260502203518 10 35 4.8 14.5 0.00 0.05 0.05 55 1018.9
20260502203020 10 329 8.0 14.5 0.00 0.05 0.05 54 1019.0
20260502202517 10 355 8.0 16.1 0.00 0.05 0.05 53 1019.0
20260502202017 11 351 9.7 16.1 0.00 0.05 0.05 51 1019.0
20260502201524 11 26 6.4 14.5 0.00 0.05 0.05 51 1019.0
20260502201017 11 17 6.4 11.3 0.00 0.05 0.05 51 1019.0
20260502200517 11 342 4.8 16.1 0.00 0.05 0.05 51 1019.0
20260502200018 11 49 8.0 17.7 0.00 0.05 0.05 50 1019.0
20260502195517 11 355 11.3 17.7 0.00 0.05 0.05 50 1019.1
20260502195015 11 43 8.0 20.9 0.00 0.05 0.05 50 1019.1
20260502194516 11 28 8.0 22.5 0.00 0.05 0.05 50 1019.1
20260502194017 11 10 11.3 22.5 0.00 0.05 0.05 50 1019.1
20260502193515 11 28 14.5 24.1 0.00 0.05 0.05 50 1019.1
20260502193016 11 17 16.1 24.1 0.00 0.05 0.05 49 1019.1
20260502192515 11 26 11.3 24.1 0.00 0.05 0.05 49 1019.0
20260502192014 11 33 14.5 30.6 0.00 0.05 0.05 49 1019.1
20260502191514 11 26 19.3 30.6 0.00 0.05 0.05 49 1019.0
20260502191014 11 43 9.7 17.7 0.00 0.05 0.05 50 1019.1
20260502190514 10 30 8.0 19.3 0.00 0.05 0.05 51 1019.1
20260502190020 10 26 12.9 19.3 0.00 0.05 0.05 50 1019.1
20260502185514 11 32 4.8 17.7 0.00 0.05 0.05 50 1019.1
20260502185014 11 42 9.7 17.7 0.00 0.05 0.05 50 1019.1
20260502184523 11 36 9.7 22.5 0.00 0.05 0.05 50 1019.1
20260502184013 11 40 9.7 22.5 0.00 0.05 0.05 50 1019.1
20260502183512 11 44 9.7 16.1 0.00 0.05 0.05 49 1018.9
20260502183012 11 36 4.8 17.7 0.00 0.05 0.05 50 1018.9
20260502182511 11 55 4.8 17.7 0.00 0.05 0.05 49 1018.9
20260502182012 11 13 8.0 16.1 0.00 0.05 0.05 50 1018.8
20260502181512 10 58 9.7 16.1 0.00 0.05 0.05 50 1018.9
20260502181011 10 35 8.0 16.1 0.00 0.05 0.05 51 1018.9
20260502180511 11 72 6.4 20.9 0.00 0.05 0.05 50 1018.9
20260502170509 11 10 8.0 14.5 0.00 0.05 0.05 48 1018.8
20260502164007 11 13 22.5 29.0 0.00 0.05 0.05 47 1018.7
20260502163507 12 10 11.3 24.1 0.00 0.05 0.05 47 1018.6
20260502163010 12 348 11.3 25.7 0.00 0.05 0.05 47 1018.7
20260502162507 12 86 12.9 25.7 0.00 0.05 0.05 46 1018.6
20260502162006 12 33 17.7 25.7 0.00 0.05 0.05 46 1018.6
20260502161506 12 22 12.9 32.2 0.00 0.05 0.05 46 1018.6
20260502161005 12 39 17.7 30.6 0.00 0.05 0.05 45 1018.6
20260502160504 12 23 12.9 33.8 0.00 0.05 0.05 46 1018.7
20260502152054 12 37 19.3 37.0 0.00 0.05 0.05 47 1019.0
20260502151603 12 25 22.5 37.0 0.00 0.05 0.05 47 1019.2
20260502151055 12 38 22.5 38.6 0.00 0.05 0.05 45 1019.1
20260502150553 12 41 24.1 40.2 0.00 0.05 0.05 44 1019.1
20260502130548 12 63 20.9 38.6 0.00 0.05 0.05 43 1019.2
20260502123645 12 14 25.7 40.2 0.00 0.05 0.05 46 1019.5
20260502123044 12 18 17.7 38.6 0.00 0.05 0.05 46 1019.5
20260502122644 12 59 22.5 41.8 0.00 0.05 0.05 46 1019.4
20260502122042 12 27 24.1 41.8 0.00 0.05 0.05 46 1019.3
20260502121543 12 19 22.5 41.8 0.00 0.05 0.05 46 1019.3
20260502121045 12 54 19.3 41.8 0.00 0.05 0.05 46 1019.4
20260502120544 12 62 22.5 43.5 0.00 0.05 0.05 45 1019.4
20260502115541 13 15 30.6 41.8 0.00 0.05 0.05 46 1019.3
20260502115045 13 40 24.1 43.5 0.00 0.05 0.05 46 1019.3
20260502114544 12 42 20.9 49.9 0.00 0.05 0.05 47 1019.6
20260502114039 12 45 25.7 49.9 0.00 0.05 0.05 48 1019.8
20260502113538 12 14 25.7 41.8 0.00 0.05 0.05 49 1019.6
20260502113038 12 27 24.1 41.8 0.00 0.05 0.05 49 1019.6
20260502112539 12 20 22.5 37.0 0.00 0.05 0.05 49 1019.5
20260502112037 13 46 20.9 38.6 0.00 0.05 0.05 49 1019.5
20260502111536 12 10 16.1 38.6 0.00 0.05 0.05 52 1019.5
20260502111036 12 55 16.1 33.8 0.00 0.05 0.05 52 1019.6
20260502110536 12 355 20.9 35.4 0.00 0.05 0.05 54 1019.8
20260502110039 11 84 24.1 41.8 0.00 0.05 0.05 56 1019.9
20260502105535 11 21 20.9 41.8 0.00 0.05 0.05 56 1020.0
20260502105036 11 85 20.9 40.2 0.00 0.05 0.05 56 1019.9
20260502104537 12 49 17.7 45.1 0.00 0.05 0.05 55 1020.0
20260502104035 12 43 20.9 45.1 0.00 0.05 0.05 55 1020.0
20260502103538 12 73 22.5 38.6 0.00 0.05 0.05 55 1020.0
20260502103034 12 62 19.3 33.8 0.00 0.05 0.05 56 1020.0
20260502102534 12 28 19.3 37.0 0.00 0.05 0.05 56 1020.1
20260502102034 12 58 22.5 38.6 0.00 0.05 0.05 56 1020.2
20260502101538 12 80 22.5 41.8 0.00 0.05 0.05 56 1020.0
20260502101033 12 33 27.4 41.8 0.00 0.05 0.05 57 1020.1
20260502100533 12 58 17.7 30.6 0.00 0.05 0.05 61 1020.1
20260502091528 11 347 14.5 25.7 0.00 0.05 0.05 61 1020.0
20260502091028 11 23 14.5 25.7 0.00 0.05 0.05 63 1020.0
20260502090526 11 19 16.1 27.4 0.00 0.05 0.05 63 1020.1
20260502071520 11 74 29.0 48.3 0.00 0.05 0.05 60 1019.8
20260502071019 11 61 24.1 51.5 0.00 0.05 0.05 60 1019.9
20260502070518 11 59 27.4 51.5 0.00 0.05 0.05 60 1019.9
20260502070018 11 34 24.1 40.2 0.00 0.05 0.05 59 1019.7
20260502065518 11 85 16.1 40.2 0.00 0.05 0.05 59 1019.7
20260502065017 11 31 20.9 38.6 0.00 0.05 0.05 60 1019.6
20260502064536 11 23 14.5 43.5 0.00 0.05 0.05 61 1019.7
20260502064018 11 70 20.9 43.5 0.00 0.05 0.05 61 1019.7
20260502063516 11 42 22.5 43.5 0.00 0.05 0.05 61 1019.7
20260502063018 11 26 17.7 40.2 0.00 0.05 0.05 61 1019.7
20260502062517 11 43 24.1 41.8 0.00 0.05 0.05 61 1019.7
20260502062017 11 47 20.9 41.8 0.00 0.05 0.05 61 1019.6
20260502061514 11 22 24.1 49.9 0.00 0.05 0.05 60 1019.7
20260502061014 12 62 30.6 49.9 0.03 0.05 0.05 59 1019.5
20260502060513 12 41 24.1 43.5 0.03 0.05 0.05 60 1019.5
20260502060014 11 82 19.3 40.2 0.03 0.05 0.05 61 1019.7
20260502055511 11 360 29.0 40.2 0.03 0.05 0.05 60 1019.6
20260502055009 11 41 24.1 40.2 0.03 0.05 0.05 62 1019.6
20260502054508 11 88 8.0 33.8 0.03 0.05 0.05 64 1019.5
20260502054007 11 29 17.7 33.8 0.03 0.05 0.05 65 1019.6
20260502053506 11 61 14.5 33.8 0.03 0.05 0.05 66 1019.6
20260502053005 10 31 20.9 37.0 0.03 0.05 0.05 66 1019.7
20260502052507 10 58 19.3 37.0 0.03 0.05 0.05 66 1019.7
20260502052003 10 61 20.9 40.2 0.03 0.05 0.05 67 1019.7
20260502051504 10 52 14.5 35.4 0.00 0.03 0.03 67 1019.7
20260502051002 10 65 17.7 33.8 0.00 0.03 0.03 67 1019.6
20260502050502 10 50 20.9 33.8 0.00 0.03 0.03 67 1019.7
20260502050001 10 63 19.3 38.6 0.00 0.03 0.03 68 1019.7
20260502045501 10 58 19.3 38.6 0.00 0.03 0.03 69 1019.7
20260502045058 10 19 16.1 35.4 0.00 0.03 0.03 69 1019.8
20260502044559 10 59 12.9 40.2 0.00 0.03 0.03 70 1019.8
20260502044100 10 26 16.1 40.2 0.00 0.03 0.03 70 1019.8
20260502043556 10 48 17.7 35.4 0.00 0.03 0.03 70 1019.8
20260502043056 10 61 17.7 32.2 0.00 0.03 0.03 71 1019.8
20260502042554 10 61 14.5 29.0 0.00 0.03 0.03 71 1019.7
20260502042053 10 59 17.7 32.2 0.00 0.03 0.03 71 1019.8
20260502041553 10 49 11.3 30.6 0.03 0.03 0.03 72 1019.8
20260502041052 10 78 14.5 30.6 0.03 0.03 0.03 73 1019.9
20260502040551 10 58 12.9 30.6 0.03 0.03 0.03 73 1019.8
20260502040103 10 32 12.9 27.4 0.03 0.03 0.03 74 1019.8
20260502035550 10 40 14.5 27.4 0.03 0.05 0.03 74 1019.8
20260502035051 10 56 14.5 29.0 0.03 0.05 0.03 74 1019.8
20260502034554 10 27 12.9 30.6 0.03 0.05 0.03 74 1019.8
20260502034051 10 84 16.1 30.6 0.03 0.05 0.03 75 1019.7
20260502033548 10 26 11.3 30.6 0.03 0.05 0.03 76 1019.6
20260502033048 10 38 14.5 30.6 0.03 0.05 0.03 77 1019.5
20260502032546 10 36 16.1 27.4 0.03 0.05 0.03 75 1019.6
20260502032045 10 42 9.7 25.7 0.03 0.05 0.03 74 1019.5
20260502031549 10 69 12.9 29.0 0.00 0.03 0.00 74 1019.5
20260502031044 10 36 11.3 29.0 0.00 0.03 0.00 73 1019.5
20260502030544 10 68 14.5 25.7 0.00 0.03 0.00 72 1019.5
20260502030043 10 15 16.1 25.7 0.00 0.03 0.00 72 1019.5
20260502025544 10 44 11.3 24.1 0.00 0.03 0.00 72 1019.6
20260502025042 10 49 11.3 29.0 0.00 0.03 0.00 72 1019.7
20260502024544 10 32 14.5 29.0 0.00 0.03 0.00 71 1019.7
20260502024041 10 37 14.5 25.7 0.00 0.03 0.00 70 1019.6
20260502023543 10 46 9.7 29.0 0.00 0.03 0.00 70 1019.6
20260502023049 10 29 17.7 30.6 0.00 0.03 0.00 69 1019.7
20260502022539 10 28 16.1 30.6 0.00 0.03 0.00 70 1019.6
20260502022039 10 61 12.9 30.6 0.00 0.03 0.00 70 1019.6
20260502021538 10 40 16.1 25.7 0.00 0.03 0.00 70 1019.6
20260502021037 10 44 4.8 19.3 0.00 0.03 0.00 70 1019.6
20260502020537 10 57 9.7 24.1 0.00 0.03 0.00 70 1019.6
20260502020044 10 71 8.0 22.5 0.00 0.03 0.00 70 1019.7
20260502015537 10 67 11.3 22.5 0.00 0.03 0.00 70 1019.6
20260502015036 10 20 11.3 22.5 0.00 0.03 0.00 71 1019.7
20260502014547 10 27 11.3 20.9 0.00 0.03 0.00 71 1019.7
20260502014035 10 75 11.3 22.5 0.00 0.03 0.00 72 1019.7
20260502013536 10 34 6.4 17.7 0.00 0.03 0.00 72 1019.8
20260502013034 10 41 8.0 22.5 0.00 0.03 0.00 72 1019.7
20260502012534 10 71 11.3 22.5 0.00 0.03 0.00 72 1019.7
20260502012036 10 48 11.3 25.7 0.00 0.03 0.00 72 1019.7
20260502011534 10 57 14.5 25.7 0.00 0.03 0.00 72 1019.7
20260502011035 10 72 9.7 24.1 0.00 0.03 0.00 72 1019.8
20260502010532 10 55 9.7 27.4 0.00 0.03 0.00 72 1019.8
20260502010034 10 49 9.7 27.4 0.00 0.03 0.00 72 1019.9
20260502005531 10 44 12.9 25.7 0.00 0.03 0.00 72 1019.7
20260502005033 10 44 11.3 24.1 0.00 0.03 0.00 71 1019.7
20260502004534 10 94 8.0 24.1 0.00 0.03 0.00 71 1019.8
20260502004029 10 57 12.9 29.0 0.00 0.03 0.00 70 1019.8
20260502003531 10 22 14.5 33.8 0.00 0.03 0.00 69 1019.7
20260502003028 10 44 11.3 25.7 0.00 0.03 0.00 69 1019.7
20260502002528 10 34 9.7 25.7 0.00 0.03 0.00 69 1019.9
20260502002028 10 67 11.3 32.2 0.00 0.03 0.00 69 1019.9
20260502001540 11 55 16.1 30.6 0.00 0.03 0.00 70 1020.0
20260502001026 11 36 16.1 30.6 0.00 0.03 0.00 71 1020.0
20260502000525 11 23 9.7 25.7 0.00 0.03 0.00 71 1020.1
20260502000025 11 360 16.1 37.0 0.00 0.05 0.00 70 1020.1
20260501235525 11 55 20.9 33.8 0.00 0.05 0.00 70 1020.1
20260501235023 11 61 12.9 29.0 0.00 0.05 0.00 70 1020.1
20260501234523 11 61 11.3 25.7 0.00 0.05 0.00 70 1020.2
20260501234022 11 37 14.5 25.7 0.00 0.05 0.00 70 1020.3
20260501233523 11 63 12.9 30.6 0.00 0.05 0.00 70 1020.3
20260501233021 11 42 14.5 30.6 0.00 0.05 0.00 70 1020.3
20260501232523 11 59 16.1 29.0 0.00 0.05 0.00 71 1020.3
20260501232020 11 24 14.5 29.0 0.00 0.05 0.00 71 1020.4
20260501231523 11 41 12.9 32.2 0.00 0.05 0.00 71 1020.3
20260501231019 11 30 17.7 37.0 0.00 0.05 0.00 71 1020.3
20260501230522 11 42 17.7 29.0 0.00 0.05 0.00 72 1020.4
20260501230021 11 34 9.7 27.4 0.00 0.05 0.00 72 1020.4
20260501225517 11 64 11.3 27.4 0.00 0.05 0.00 72 1020.4
20260501225014 11 52 11.3 25.7 0.00 0.05 0.00 72 1020.6
20260501224515 11 30 12.9 25.7 0.00 0.05 0.00 72 1020.7
20260501224017 11 65 8.0 27.4 0.00 0.05 0.00 71 1020.7
20260501223513 11 42 12.9 30.6 0.00 0.05 0.00 71 1020.7
20260501223017 11 38 19.3 30.6 0.00 0.05 0.00 71 1020.8
20260501222512 11 35 14.5 32.2 0.00 0.05 0.00 71 1020.8
20260501222009 11 43 19.3 32.2 0.00 0.05 0.00 71 1021.0
20260501221509 11 46 6.4 19.3 0.00 0.05 0.00 72 1021.1
20260501221009 11 36 11.3 24.1 0.00 0.05 0.00 72 1021.0